Location: Svitavy
(49.7500°N, 16.4667°E)
Time: 17:30:26
(UTC+01:00)

ISS - Pass Details

Date: 24 January 2020
Orbit: 415 x 422 km, 51.6° (Epoch: 26 February)

Event Time Altitude Azimuth Distance (km) Brightness Sun altitude
Rises 18:20:27 0° 237° (WSW) 2,372 1.3 -16.8°
Reaches altitude 10° 18:22:34 10° 233° (SW) 1,508 0.0 -17.1°
Maximum altitude 18:25:54 57° 155° (SSE) 505 -3.5 -17.7°
Enters shadow 18:26:24 50° 116° (ESE) 548 -3.6 -17.8°
